RH
9 14 24 23 20 17 16 18 22 21 24 22 20 18 14 19 24 15 5 10 12 17 21 21 20 22 21 18 14 21 37 14 19 39 49 54 74 70 55 96 97 100 91 98
9 21 26 25 24 23 23 23 28 26 25 23 17 10 19 30 38 46 34 29 24 24 24 27 22 21 21 23 16 17 45 60 13 25 37 41 61 80 56 75 72 85 99 83
26 28 25 22 24 27 36 36 39 39 31 22 13 22 28 27 28 54 62 47 47 33 27 27 24 23 22 22 20 17 21 60 53 21 18 37 57 77 84 59 62 99 91 91
24 15 17 20 23 39 38 42 40 37 35 34 27 38 58 74 60 63 69 50 52 57 54 41 29 25 25 25 24 22 56 34 85 66 59 20 34 45 68 65 40 92 99 94
23 18 16 13 30 29 43 36 34 35 37 35 33 50 90 72 64 63 66 65 64 62 68 53 44 34 27 27 23 25 90 77 51 94 78 57 28 40 50 78 54 94 99 94
34 36 40 42 31 33 58 59 48 39 38 48 64 68 98 88 100 84 81 76 70 66 67 73 62 53 34 30 27 20 33 79 49 67 69 98 62 42 50 63 91 65 94 98
41 40 43 37 42 43 66 56 62 54 50 46 89 83 97 95 98 98 91 91 80 74 67 79 67 68 55 38 35 26 22 61 63 54 73 94 95 84 58 65 68 78 62 96
53 44 54 50 43 81 79 96 92 86 50 82 96 94 96 97 97 96 96 97 95 76 78 83 81 63 62 60 56 36 27 30 66 75 80 92 86 93 86 78 60 50 67 25
56 53 47 54 40 75 81 91 73 97 69 75 96 97 93 80 94 95 96 96 94 89 82 87 94 76 58 65 68 60 38 29 51 33 81 94 91 66 96 89 76 76 85 34
41 61 46 42 44 56 73 84 81 95 90 94 96 97 99 88 89 94 94 95 96 92 88 86 88 94 63 56 58 70 70 60 50 51 44 73 83 90 85 86 73 68 86 75
45 49 47 45 65 72 52 74 95 91 92 93 94 97 98 98 96 95 96 96 97 96 93 94 92 92 89 73 55 50 66 99 97 39 36 43 85 91 90 94 83 76 81 93
41 48 54 43 60 46 58 77 73 74 80 95 75 95 71 95 97 96 96 96 97 97 95 98 100 96 94 81 65 46 41 60 96 99 55 43 55 60 75 85 75 81 84 97
40 46 61 56 56 60 48 63 68 65 69 93 84 86 67 61 50 70 72 73 92 95 97 96 92 91 89 82 78 58 39 34 48 88 90 96 98 97 81 76 80 77 78 82
36 46 79 91 98 86 75 52 48 62 91 95 95 79 59 60 55 39 38 40 51 66 86 88 89 92 89 90 83 89 51 31 29 41 66 66 67 78 85 93 76 82 88 80
36 44 70 83 89 86 70 69 64 60 69 82 80 81 78 68 63 51 54 40 42 40 38 61 79 88 100 100 79 83 66 36 24 27 33 46 46 59 85 88 71 94 91 87
36 41 48 80 97 92 63 64 72 79 89 87 88 88 82 68 56 48 52 49 43 48 34 37 62 75 91 92 95 68 76 64 36 19 22 25 33 35 47 64 92 94 91 83
36 34 43 56 89 76 73 65 80 76 77 96 95 87 72 56 45 46 59 58 52 54 62 41 36 50 63 91 98 82 69 87 87 45 23 15 17 24 26 45 87 85 92 78
37 41 44 54 82 92 71 60 50 76 93 78 80 66 63 53 52 58 64 64 63 62 58 51 36 34 57 72 83 86 82 76 93 99 60 25 13 10 15 18 36 80 72 76
42 48 51 58 59 78 78 59 53 46 74 75 82 67 63 56 53 51 59 67 70 74 65 61 55 34 38 58 74 86 83 83 78 96 100 81 71 77 23 17 21 60 66 64
58 50 52 44 71 98 60 56 60 48 71 62 80 87 74 73 87 83 76 63 75 67 67 60 57 43 38 31 54 77 89 87 78 80 94 99 90 98 100 76 26 49 63 66
68 59 61 53 58 69 66 66 73 57 68 84 88 92 89 82 99 95 89 80 75 70 68 60 62 51 46 33 24 55 78 92 86 82 93 94 98 99 99 100 68 82 96 56
69 80 80 71 62 62 72 86 71 72 82 74 87 93 84 82 87 88 98 92 79 70 61 59 69 68 63 61 39 25 57 78 96 83 86 93 94 96 99 100 100 99 99 99
76 91 95 84 82 93 93 95 95 85 87 80 84 65 73 78 73 83 94 82 77 76 63 54 64 69 63 63 55 44 26 37 83 92 89 93 94 94 96 99 100 100 94 90
53 69 98 96 85 92 95 95 96 96 82 80 67 61 56 69 69 75 82 69 75 67 59 49 64 66 65 60 53 54 43 21 48 84 95 95 96 97 95 96 100 100 100 100
75 71 80 67 64 82 96 96 98 89 90 78 66 78 66 69 67 75 70 63 57 57 46 59 64 66 68 64 62 66 63 36 15 38 84 87 94 95 95 96 96 96 99 100
50 51 72 73 70 71 74 98 96 96 85 81 90 79 70 72 70 69 69 63 56 41 50 66 62 61 60 61 61 57 53 57 31 13 15 41 63 95 96 97 96 97 95 96
Wind_Speed
12 4 20 19 18 18 19 20 22 22 17 19 18 23 24 26 26 25 31 33 33 36 31 26 25 19 23 26 34 32 36 35 34 30 27 24 26 30 29 29 30 41 32 26
8 11 17 16 22 18 19 22 20 26 19 20 21 20 18 16 20 22 25 30 35 36 36 31 29 28 23 17 29 41 40 40 32 28 28 25 24 30 28 26 25 26 29 31
13 20 25 24 24 20 12 10 17 21 24 21 21 3 11 20 24 23 23 30 33 36 40 36 33 27 26 21 21 38 44 45 41 31 28 29 27 26 32 31 32 31 30 30
8 29 24 27 25 28 34 19 23 24 18 9 16 7 11 16 18 23 20 27 32 33 29 34 35 30 27 22 18 28 44 44 46 41 37 30 31 28 32 32 32 36 34 35
25 22 22 34 31 39 34 38 36 27 24 22 15 6 14 16 16 21 23 22 23 30 26 27 30 32 31 28 22 23 38 48 48 47 43 35 31 30 29 35 35 37 39 35
28 9 24 23 37 35 33 25 28 22 17 6 10 9 25 24 24 23 20 16 18 23 26 18 23 26 32 32 26 29 29 44 49 51 46 45 32 33 34 34 35 34 36 37
33 27 24 40 36 35 23 23 6 5 7 3 12 18 16 19 21 23 25 22 19 19 22 22 18 27 27 31 29 29 34 37 47 52 48 49 39 37 31 29 34 37 41 41
23 33 32 25 30 29 28 20 6 4 4 6 11 11 9 24 22 22 23 22 20 20 19 19 19 19 26 25 26 30 34 37 41 51 53 49 42 40 33 30 32 31 38 38
19 22 32 28 25 22 33 28 16 11 12 1 6 6 10 24 23 25 26 25 26 24 23 21 18 20 19 15 18 28 35 39 38 40 52 51 47 38 39 32 37 40 38 36
26 15 27 35 19 29 22 24 9 5 3 6 5 9 18 29 29 28 29 30 29 29 27 23 22 18 21 19 12 18 31 37 41 39 39 49 50 44 38 34 30 34 41 37
27 15 28 26 24 30 36 34 16 7 9 3 3 4 18 20 24 29 30 30 31 31 31 28 23 22 21 22 17 13 18 24 29 42 41 38 50 47 42 41 33 28 34 41
22 16 23 10 20 25 28 20 18 6 8 9 7 4 20 19 20 26 31 32 30 28 29 28 25 24 25 24 20 19 16 22 25 26 35 39 51 45 46 45 39 35 28 39
15 16 20 13 12 26 31 26 12 9 7 23 4 6 22 28 26 23 28 30 31 29 27 29 28 26 27 27 23 22 22 22 27 30 34 34 42 36 48 41 42 40 34 33
10 14 9 1 6 17 24 24 23 20 13 12 11 20 26 30 33 30 28 28 29 32 31 29 29 29 28 27 24 25 24 29 29 33 36 35 33 46 41 47 45 42 43 35
19 15 9 7 8 17 21 16 19 23 20 12 16 21 28 32 35 34 31 29 28 28 30 30 28 30 32 31 24 24 22 28 34 41 41 41 37 40 39 44 48 44 43 44
21 16 15 9 3 12 16 15 12 16 18 19 17 22 25 30 34 36 33 32 31 32 29 31 29 29 31 34 31 23 22 25 31 39 50 50 48 42 47 42 49 41 44 43
18 21 14 7 3 1 7 13 10 9 11 14 20 21 26 29 33 39 34 32 33 33 34 30 28 28 28 29 31 26 23 19 22 31 41 51 57 56 48 42 45 52 44 47
16 22 11 11 6 2 2 8 13 8 7 13 12 20 24 29 30 30 28 32 32 32 33 33 30 27 27 26 26 26 20 16 14 14 27 41 45 55 60 51 48 46 54 53
14 21 11 7 11 6 1 5 11 16 9 15 18 23 25 28 31 30 32 30 30 31 32 33 32 29 25 24 22 22 22 16 15 12 13 24 30 33 44 48 45 51 45 51
19 14 8 11 4 3 3 9 13 13 5 15 18 21 26 29 32 34 34 33 32 32 35 34 33 32 27 23 21 22 19 21 14 17 17 5 32 22 33 36 48 40 42 42
17 11 11 10 6 7 7 9 14 8 11 14 19 19 25 27 26 30 32 35 36 37 39 38 31 30 29 25 21 19 20 18 18 14 17 19 13 23 23 29 44 40 37 40
10 9 6 7 6 4 12 18 11 10 11 18 18 22 26 28 28 31 31 35 38 40 40 37 31 28 25 24 23 19 19 17 16 16 17 17 19 19 2 26 39 39 40 39
5 14 15 8 17 24 21 13 11 9 16 20 19 26 29 30 31 34 35 38 39 41 40 36 32 26 22 23 21 22 18 19 16 14 14 17 18 20 21 6 21 38 38 43
14 9 9 19 17 20 11 13 13 18 18 22 26 28 34 34 36 38 39 41 41 41 40 34 29 23 21 20 19 20 20 22 16 16 14 15 16 18 19 17 7 21 20 29
10 16 16 19 19 20 19 11 16 17 21 26 28 32 34 35 38 37 40 42 41 40 36 30 25 22 20 20 20 19 19 19 18 16 17 18 16 14 16 20 17 16 9 27
10 13 13 16 18 17 17 18 19 21 25 27 30 33 36 34 36 39 39 39 38 35 31 26 21 19 19 19 20 19 18 19 19 16 14 16 19 15 13 14 16 18 16 8
Wind_Direction
11 2 26 359 344 315 297 288 285 277 286 294 287 282 314 318 308 304 287 280 268 261 265 264 250 242 231 236 234 231 243 245 248 247 256 264 246 234 215 222 231 227 227 252
357 23 352 329 309 311 310 297 296 284 276 288 285 294 312 305 310 309 299 291 275 262 258 261 256 258 244 230 228 230 222 239 250 244 253 265 266 243 234 222 221 223 228 229
37 355 328 315 318 314 346 322 332 320 307 290 289 317 301 295 289 284 279 287 285 277 264 259 255 250 250 239 221 226 221 220 233 244 245 251 257 243 232 219 224 214 211 223
18 336 325 320 323 337 333 298 309 316 321 302 298 293 325 324 292 285 287 272 277 270 263 264 257 248 242 242 223 226 215 219 221 230 240 253 262 266 246 236 223 216 216 206
347 333 329 322 321 320 314 307 300 301 287 289 285 220 7 350 324 309 315 300 294 282 279 263 256 251 242 235 233 223 214 214 218 220 232 243 259 264 257 242 231 224 212 219
354 329 348 330 318 310 320 311 301 281 276 224 199 213 39 21 8 347 348 343 324 300 285 283 268 259 246 240 229 228 223 214 215 220 221 233 246 259 255 241 235 223 214 217
343 336 327 334 342 335 338 319 307 211 192 226 138 92 52 13 16 7 1 359 355 332 308 273 273 259 246 245 234 225 229 221 218 221 221 220 233 246 257 241 245 233 228 214
339 330 333 345 334 325 336 340 284 283 225 132 77 96 58 15 10 13 13 11 10 358 344 315 273 282 255 240 236 226 228 230 223 222 221 223 224 236 241 238 236 237 235 227
337 320 338 344 343 357 337 343 311 273 278 105 71 84 11 7 5 12 13 15 20 16 4 343 310 277 278 252 226 218 226 232 232 230 227 224 224 229 236 236 239 241 236 229
350 319 355 353 17 356 2 359 350 323 297 102 73 48 6 358 3 7 11 17 17 22 14 2 349 295 303 281 247 223 221 230 233 230 234 232 225 228 231 231 235 240 237 233
4 358 355 33 19 8 13 24 13 30 11 38 79 29 3 353 359 7 10 14 17 20 20 17 4 354 323 315 292 252 223 231 233 235 232 240 221 231 231 235 238 236 241 239
5 357 339 31 27 35 41 32 33 24 13 60 109 63 9 6 3 8 12 11 12 15 20 17 16 19 7 349 319 281 246 223 224 220 234 233 220 224 231 232 236 238 246 238
5 8 348 3 0 20 38 37 34 45 56 28 58 338 14 17 14 5 7 9 12 11 11 18 14 23 17 8 347 312 276 244 225 224 230 231 236 239 229 230 236 239 245 240
7 16 8 54 43 32 37 37 40 57 60 59 40 6 7 7 6 2 1 3 9 10 8 8 17 16 25 17 14 342 295 263 248 228 230 237 241 235 240 226 231 235 242 244
5 10 11 99 81 37 39 45 45 48 47 44 11 9 4 358 356 355 349 354 356 3 3 5 12 12 15 21 19 6 321 281 263 250 236 235 240 242 241 235 229 233 236 243
355 349 347 248 279 66 49 34 39 55 44 27 13 5 354 349 346 346 345 345 348 350 355 358 2 5 8 15 13 10 349 311 278 257 251 246 243 244 245 247 238 229 237 237
334 354 342 327 19 335 27 27 27 26 41 27 10 348 345 345 340 341 341 344 343 341 341 347 349 355 358 6 15 12 6 342 304 276 258 253 250 246 245 246 242 234 235 235
315 343 334 312 302 65 42 17 355 339 40 27 357 344 342 342 341 337 345 346 343 339 334 334 337 342 350 360 9 13 9 349 332 293 270 263 256 252 247 246 244 241 245 247
326 339 328 352 333 179 243 0 340 334 289 1 341 339 343 342 341 347 348 345 341 340 337 333 328 325 337 344 352 4 12 5 352 1 253 255 260 258 248 244 246 245 252 239
324 343 353 339 308 238 308 326 325 343 284 334 332 339 343 344 343 345 343 340 338 336 338 334 324 319 321 324 336 346 4 9 3 358 22 265 237 243 239 243 241 242 244 246
337 342 341 327 303 284 287 312 317 314 327 335 330 336 336 339 335 333 335 335 333 335 334 337 327 320 317 314 316 327 337 2 9 6 6 23 42 259 249 234 240 241 244 246
341 334 322 312 281 297 290 290 289 319 329 328 323 327 328 331 332 331 329 327 330 331 335 336 330 325 319 319 312 308 313 336 355 2 3 19 31 43 63 239 230 224 234 236
295 333 309 295 297 301 300 292 297 313 308 319 311 320 327 324 327 330 323 325 329 330 335 335 330 324 321 319 315 306 298 300 323 345 359 1 14 36 45 98 213 231 238 238
335 327 305 320 314 310 298 294 308 311 316 312 314 314 322 321 326 324 322 327 328 329 333 332 330 330 330 324 321 313 302 293 304 315 335 336 5 27 43 58 108 203 207 223
336 329 320 326 324 332 317 317 287 292 296 302 304 313 322 321 322 321 323 323 322 326 328 330 330 331 328 323 324 316 308 307 294 297 314 324 338 16 36 45 61 52 206 219
331 331 339 334 330 321 316 312 301 294 299 302 311 317 319 319 319 321 320 320 322 323 325 326 326 323 323 324 325 319 314 313 301 291 288 299 312 339 7 37 45 56 57 57